Location: Prairie State College
(41.5244°N, 87.6382°W)
Time: 08:22:06
(UTC-06:00)

MSX - Visible Passes

Search period start: 07 December 2016 00:00
Search period end: 17 December 2016 00:00
Orbit: 896 x 904 km, 98.7° (Epoch: 06 December)

Date Brightness Start Highest point End Pass type
(mag) Time Alt. Az. Time Alt. Az. Time Alt. Az.
07 Dec 6.5 05:26:18 10° NE 05:30:35 21° E 05:34:50 10° SE visible
07 Dec 4.1 16:59:13 10° SE 17:04:37 43° ENE 17:10:00 10° N visible
07 Dec 5.9 18:41:40 10° SSW 18:46:28 27° W 18:51:17 10° NW visible
08 Dec 6.4 05:28:58 10° NE 05:33:24 22° E 05:37:47 10° SE visible
08 Dec 4.1 17:01:55 10° SE 17:07:22 46° ENE 17:12:48 10° N visible
08 Dec 5.9 18:44:34 10° SSW 18:49:16 26° W 18:53:59 10° NW visible
09 Dec 6.3 05:31:39 10° NE 05:36:12 24° E 05:40:44 10° SE visible
09 Dec 4.0 17:04:38 10° SE 17:10:07 48° ENE 17:15:37 10° N visible
09 Dec 6.0 18:47:30 10° SSW 18:52:04 24° W 18:56:40 10° NW visible
10 Dec 6.2 05:34:19 10° NE 05:39:00 25° E 05:43:39 10° SSE visible
10 Dec 4.0 17:07:21 10° SE 17:12:53 51° ENE 17:18:25 10° N visible
10 Dec 6.1 18:50:26 10° SW 18:54:52 23° W 18:59:20 10° NW visible
11 Dec 6.1 05:37:01 10° NE 05:41:48 27° E 05:46:33 10° SSE visible
11 Dec 3.9 17:10:05 10° SSE 17:15:38 54° ENE 17:21:14 10° N visible
11 Dec 6.2 18:53:22 10° SW 18:57:41 22° W 19:02:00 10° NW visible
12 Dec 6.0 05:39:42 10° NE 05:44:36 28° E 05:49:28 10° SSE visible
12 Dec 3.9 17:12:48 10° SSE 17:18:25 57° ENE 17:24:02 10° N visible
12 Dec 6.3 18:56:20 10° SW 19:00:29 20° W 19:04:39 10° NW visible
13 Dec 5.9 05:42:25 10° NE 05:47:25 30° E 05:52:22 10° SSE visible
13 Dec 3.8 17:15:32 10° SSE 17:21:10 60° ENE 17:26:49 10° N visible
13 Dec 6.4 18:59:18 10° SW 19:03:18 19° W 19:07:18 10° NW visible
14 Dec 5.8 05:45:07 10° NNE 05:50:12 32° E 05:55:15 10° SSE visible
14 Dec 3.8 17:18:17 10° SSE 17:23:56 64° ENE 17:29:36 10° N visible
14 Dec 6.4 19:02:18 10° SW 19:06:06 18° W 19:09:56 10° NW visible
15 Dec 5.7 05:47:50 10° NNE 05:53:00 33° E 05:58:08 10° SSE visible
15 Dec 3.8 17:21:01 10° SSE 17:26:42 68° ENE 17:32:24 10° N visible
15 Dec 6.5 19:05:18 10° SW 19:08:55 17° W 19:12:34 10° NW visible
16 Dec 5.6 05:50:33 10° NNE 05:55:47 35° E 06:01:00 10° SSE visible
16 Dec 3.8 17:23:46 10° SSE 17:29:28 71° ENE 17:35:12 10° N visible
16 Dec 6.6 19:08:19 10° SW 19:11:43 16° W 19:15:09 10° NW visible
